Terug naar catalogus

STARLINK-32687

ActiefCommunicatieVLEO
NORAD 63565·PAYLOAD·🇺🇸 United States

Gelanceerd Apr 13, 2025 vanaf Cape Canaveral Space Force Station

Loading…

Volgende Passages (komende 24 uur)

TLE

VersSource: CelesTrak SupGP

Epoch: Sep 15, 2026, 03:44 UTC

1 63565C 25075T   26258.15604167 -.00012585  00000+0 -45577-3 0  2588
2 63565  42.9996 280.7095 0001121 264.9691  55.7397 15.27588531    11

Volg STARLINK-32687 in realtime met AllMySat

Download on the App Store